カタログに戻る

DELTA 1 R/B

運用中LEO
NORAD 6237·ROCKET BODY·🇺🇸 United States

打ち上げ Oct 15, 1972 から Vandenberg Space Force Base

Loading…

次のパス (今後24時間)

TLE

最新Source: Space-Track

元期: Sep 14, 2026, 14:44 UTC

1 06237U 72082C   26257.61408236 -.00000053  00000-0  17724-4 0  9993
2 06237 102.8044 114.0555 0361665 228.0073 137.0893 13.18721875594236

AllMySatでDELTA 1 R/Bをリアルタイム追跡

Download on the App Store